| time (UTC) | temp C | wind direction | speed KPH | gust KPH | rain 1hr cm | rain 24hr cm | rain mn cm | humidity % | barometer mb |
| 20260505040034 | 7 | 72 | 4.8 | 8.0 | 0.00 | 0.10 | 0.10 | 51 | 1011.9 |
| 20260505035517 | 7 | 87 | 6.4 | 8.0 | 0.00 | 0.10 | 0.10 | 51 | 1011.8 |
| 20260505035013 | 7 | 82 | 4.8 | 8.0 | 0.00 | 0.10 | 0.10 | 50 | 1011.8 |
| 20260505034533 | 7 | 84 | 4.8 | 8.0 | 0.00 | 0.10 | 0.10 | 49 | 1011.9 |
| 20260505034015 | 7 | 89 | 4.8 | 8.0 | 0.00 | 0.10 | 0.10 | 49 | 1011.9 |
| 20260505033513 | 7 | 65 | 4.8 | 9.7 | 0.00 | 0.10 | 0.10 | 48 | 1011.9 |
| 20260505033032 | 8 | 79 | 4.8 | 11.3 | 0.00 | 0.10 | 0.10 | 46 | 1011.9 |
| 20260505032514 | 8 | 77 | 6.4 | 11.3 | 0.00 | 0.10 | 0.10 | 44 | 1011.7 |
| 20260505032014 | 8 | 70 | 6.4 | 11.3 | 0.00 | 0.10 | 0.10 | 44 | 1011.7 |
| 20260505031538 | 9 | 72 | 4.8 | 6.4 | 0.00 | 0.10 | 0.10 | 42 | 1011.5 |
| 20260505031020 | 10 | 70 | 1.6 | 4.8 | 0.00 | 0.10 | 0.10 | 39 | 1011.3 |
| 20260505030515 | 11 | 0 | 0.0 | 3.2 | 0.00 | 0.10 | 0.10 | 34 | 1011.4 |
| 20260505030035 | 11 | 131 | 0.0 | 3.2 | 0.00 | 0.10 | 0.10 | 34 | 1011.5 |
| 20260505025514 | 11 | 96 | 0.0 | 3.2 | 0.00 | 0.10 | 0.10 | 33 | 1011.4 |
| 20260505025014 | 11 | 135 | 0.0 | 3.2 | 0.00 | 0.10 | 0.10 | 32 | 1011.3 |
| 20260505024531 | 11 | 120 | 1.6 | 1.6 | 0.00 | 0.10 | 0.10 | 31 | 1011.1 |
| 20260505024013 | 11 | 96 | 0.0 | 3.2 | 0.00 | 0.10 | 0.10 | 32 | 1011.2 |
| 20260505023513 | 11 | 0 | 0.0 | 3.2 | 0.00 | 0.10 | 0.10 | 31 | 1011.0 |
| 20260505023033 | 12 | 89 | 1.6 | 6.4 | 0.00 | 0.10 | 0.10 | 30 | 1011.1 |
| 20260505022514 | 12 | 150 | 0.0 | 8.0 | 0.00 | 0.10 | 0.10 | 29 | 1011.0 |
| 20260505022016 | 12 | 203 | 3.2 | 9.7 | 0.00 | 0.10 | 0.10 | 28 | 1011.1 |
| 20260505021535 | 12 | 215 | 4.8 | 9.7 | 0.00 | 0.10 | 0.10 | 28 | 1011.1 |
| 20260505021016 | 12 | 215 | 6.4 | 9.7 | 0.00 | 0.10 | 0.10 | 28 | 1011.0 |
| 20260505020515 | 12 | 221 | 4.8 | 11.3 | 0.00 | 0.10 | 0.10 | 28 | 1010.8 |
| 20260505020036 | 13 | 217 | 4.8 | 11.3 | 0.00 | 0.10 | 0.10 | 28 | 1010.9 |
| 20260505015515 | 13 | 224 | 4.8 | 11.3 | 0.00 | 0.10 | 0.10 | 28 | 1010.8 |
| 20260505015016 | 13 | 250 | 4.8 | 11.3 | 0.00 | 0.10 | 0.10 | 28 | 1011.0 |
| 20260505014535 | 13 | 216 | 4.8 | 11.3 | 0.00 | 0.10 | 0.10 | 28 | 1010.9 |
| 20260505014013 | 13 | 224 | 4.8 | 17.7 | 0.00 | 0.10 | 0.10 | 28 | 1010.9 |
| 20260505013513 | 13 | 245 | 6.4 | 17.7 | 0.00 | 0.10 | 0.10 | 28 | 1010.8 |
| 20260505013032 | 13 | 224 | 8.0 | 14.5 | 0.00 | 0.10 | 0.10 | 28 | 1010.8 |
| 20260505012513 | 13 | 226 | 8.0 | 14.5 | 0.00 | 0.10 | 0.10 | 28 | 1011.0 |
| 20260505012014 | 13 | 245 | 9.7 | 20.9 | 0.00 | 0.10 | 0.10 | 28 | 1011.0 |
| 20260505011536 | 14 | 219 | 12.9 | 20.9 | 0.00 | 0.10 | 0.10 | 28 | 1010.9 |
| 20260505011014 | 14 | 231 | 11.3 | 20.9 | 0.00 | 0.10 | 0.10 | 28 | 1010.9 |
| 20260505010514 | 14 | 236 | 16.1 | 24.1 | 0.00 | 0.10 | 0.10 | 28 | 1011.0 |
| 20260505010055 | 14 | 212 | 17.7 | 24.1 | 0.00 | 0.10 | 0.10 | 28 | 1011.0 |
| 20260505005513 | 14 | 220 | 16.1 | 22.5 | 0.00 | 0.10 | 0.10 | 27 | 1011.0 |
| 20260505005014 | 15 | 211 | 9.7 | 24.1 | 0.00 | 0.10 | 0.10 | 28 | 1011.1 |
| 20260505004530 | 15 | 235 | 16.1 | 24.1 | 0.00 | 0.10 | 0.10 | 28 | 1011.1 |
| 20260505004013 | 15 | 248 | 16.1 | 24.1 | 0.00 | 0.10 | 0.10 | 28 | 1011.3 |
| 20260505003515 | 15 | 234 | 16.1 | 20.9 | 0.00 | 0.10 | 0.10 | 28 | 1011.2 |
| 20260505003041 | 15 | 240 | 12.9 | 30.6 | 0.00 | 0.10 | 0.10 | 28 | 1011.2 |
| 20260505002513 | 15 | 212 | 17.7 | 30.6 | 0.00 | 0.10 | 0.10 | 27 | 1011.3 |
| 20260505002012 | 15 | 212 | 17.7 | 37.0 | 0.00 | 0.10 | 0.10 | 26 | 1011.3 |
| 20260505001534 | 15 | 203 | 17.7 | 37.0 | 0.00 | 0.10 | 0.10 | 28 | 1011.2 |
| 20260505001013 | 15 | 246 | 19.3 | 27.4 | 0.00 | 0.10 | 0.10 | 27 | 1011.3 |
| 20260505000513 | 15 | 234 | 17.7 | 27.4 | 0.00 | 0.10 | 0.10 | 29 | 1011.3 |
| 20260505000042 | 15 | 237 | 16.1 | 24.1 | 0.00 | 0.10 | 0.10 | 27 | 1011.4 |
| 20260504235514 | 15 | 220 | 11.3 | 24.1 | 0.00 | 0.10 | 0.10 | 29 | 1011.4 |
| 20260504235014 | 15 | 207 | 16.1 | 25.7 | 0.00 | 0.10 | 0.10 | 30 | 1011.3 |
| 20260504234533 | 15 | 264 | 17.7 | 25.7 | 0.00 | 0.10 | 0.10 | 30 | 1011.3 |
| 20260504234014 | 15 | 232 | 20.9 | 27.4 | 0.00 | 0.10 | 0.10 | 30 | 1011.4 |
| 20260504233513 | 15 | 219 | 17.7 | 27.4 | 0.00 | 0.10 | 0.10 | 31 | 1011.3 |
| 20260504233032 | 15 | 243 | 17.7 | 32.2 | 0.00 | 0.10 | 0.10 | 31 | 1011.4 |
| 20260504232515 | 16 | 214 | 19.3 | 32.2 | 0.00 | 0.10 | 0.10 | 29 | 1011.5 |
| 20260504232017 | 16 | 207 | 17.7 | 32.2 | 0.00 | 0.10 | 0.10 | 27 | 1011.3 |
| 20260504231532 | 16 | 215 | 20.9 | 32.2 | 0.00 | 0.10 | 0.10 | 27 | 1011.3 |
| 20260504231015 | 16 | 221 | 17.7 | 33.8 | 0.00 | 0.10 | 0.10 | 28 | 1011.5 |
| 20260504230513 | 16 | 222 | 22.5 | 33.8 | 0.00 | 0.10 | 0.10 | 27 | 1011.5 |
| 20260504230041 | 16 | 245 | 20.9 | 30.6 | 0.00 | 0.10 | 0.10 | 28 | 1011.4 |
| 20260504225514 | 16 | 251 | 20.9 | 30.6 | 0.00 | 0.10 | 0.10 | 28 | 1011.4 |
| 20260504225015 | 16 | 233 | 22.5 | 30.6 | 0.00 | 0.10 | 0.10 | 27 | 1011.4 |
| 20260504224533 | 16 | 237 | 24.1 | 30.6 | 0.00 | 0.10 | 0.10 | 27 | 1011.3 |
| 20260504224013 | 16 | 257 | 17.7 | 30.6 | 0.00 | 0.10 | 0.10 | 28 | 1011.3 |
| 20260504223514 | 16 | 166 | 20.9 | 30.6 | 0.00 | 0.10 | 0.10 | 28 | 1011.5 |
| 20260504223032 | 16 | 224 | 17.7 | 35.4 | 0.00 | 0.10 | 0.10 | 28 | 1011.3 |
| 20260504222512 | 16 | 227 | 22.5 | 35.4 | 0.00 | 0.10 | 0.10 | 29 | 1011.4 |
| 20260504222018 | 16 | 226 | 20.9 | 35.4 | 0.00 | 0.10 | 0.10 | 27 | 1011.3 |
| 20260504221545 | 16 | 184 | 14.5 | 37.0 | 0.00 | 0.10 | 0.10 | 28 | 1011.3 |
| 20260504221017 | 16 | 191 | 19.3 | 37.0 | 0.00 | 0.10 | 0.10 | 31 | 1011.5 |
| 20260504220515 | 16 | 248 | 27.4 | 37.0 | 0.00 | 0.10 | 0.10 | 32 | 1011.6 |
| 20260504220035 | 16 | 206 | 20.9 | 33.8 | 0.00 | 0.10 | 0.10 | 32 | 1011.6 |
| 20260504215514 | 16 | 222 | 20.9 | 30.6 | 0.00 | 0.10 | 0.10 | 31 | 1011.6 |
| 20260504215014 | 16 | 194 | 19.3 | 33.8 | 0.00 | 0.10 | 0.10 | 34 | 1011.7 |
| 20260504214531 | 16 | 239 | 19.3 | 33.8 | 0.00 | 0.10 | 0.10 | 30 | 1011.8 |
| 20260504214013 | 16 | 231 | 19.3 | 33.8 | 0.00 | 0.10 | 0.10 | 33 | 1011.9 |
| 20260504213513 | 16 | 230 | 19.3 | 29.0 | 0.00 | 0.10 | 0.10 | 35 | 1011.9 |
| 20260504213042 | 16 | 227 | 22.5 | 29.0 | 0.00 | 0.10 | 0.10 | 35 | 1012.0 |
| 20260504212516 | 16 | 208 | 12.9 | 32.2 | 0.00 | 0.10 | 0.10 | 36 | 1012.1 |
| 20260504212014 | 16 | 226 | 20.9 | 32.2 | 0.00 | 0.10 | 0.10 | 36 | 1012.4 |
| 20260504211536 | 16 | 236 | 17.7 | 29.0 | 0.00 | 0.10 | 0.10 | 37 | 1012.3 |
| 20260504211014 | 16 | 245 | 19.3 | 30.6 | 0.00 | 0.10 | 0.10 | 39 | 1012.2 |
| 20260504210515 | 15 | 240 | 14.5 | 30.6 | 0.00 | 0.10 | 0.10 | 42 | 1012.4 |
| 20260504210038 | 14 | 257 | 9.7 | 19.3 | 0.00 | 0.10 | 0.10 | 46 | 1012.6 |
| 20260504205514 | 14 | 301 | 6.4 | 19.3 | 0.00 | 0.10 | 0.10 | 47 | 1012.5 |
| 20260504205013 | 14 | 226 | 6.4 | 19.3 | 0.00 | 0.10 | 0.10 | 49 | 1012.8 |
| 20260504204534 | 13 | 285 | 8.0 | 14.5 | 0.00 | 0.10 | 0.10 | 52 | 1012.9 |
| 20260504204015 | 13 | 314 | 8.0 | 14.5 | 0.00 | 0.10 | 0.10 | 51 | 1013.0 |
| 20260504203517 | 12 | 281 | 8.0 | 14.5 | 0.00 | 0.10 | 0.10 | 54 | 1013.1 |
| 20260504203043 | 12 | 294 | 6.4 | 16.1 | 0.00 | 0.10 | 0.10 | 56 | 1013.0 |
| 20260504202513 | 12 | 307 | 11.3 | 17.7 | 0.00 | 0.10 | 0.10 | 56 | 1013.1 |
| 20260504202014 | 12 | 295 | 11.3 | 20.9 | 0.00 | 0.10 | 0.10 | 57 | 1013.4 |
| 20260504201532 | 12 | 312 | 12.9 | 22.5 | 0.00 | 0.10 | 0.10 | 56 | 1013.2 |
| 20260504201013 | 12 | 307 | 14.5 | 24.1 | 0.00 | 0.10 | 0.10 | 56 | 1013.5 |
| 20260504200518 | 12 | 314 | 14.5 | 30.6 | 0.00 | 0.10 | 0.10 | 56 | 1013.5 |
| 20260504200032 | 12 | 303 | 17.7 | 32.2 | 0.00 | 0.10 | 0.10 | 56 | 1013.7 |
| 20260504195512 | 12 | 290 | 22.5 | 33.8 | 0.00 | 0.10 | 0.10 | 54 | 1013.6 |
| 20260504195014 | 13 | 276 | 27.4 | 37.0 | 0.00 | 0.10 | 0.10 | 52 | 1013.6 |
| 20260504194539 | 14 | 281 | 19.3 | 37.0 | 0.00 | 0.10 | 0.10 | 50 | 1013.5 |
| 20260504194014 | 16 | 246 | 24.1 | 35.4 | 0.00 | 0.10 | 0.10 | 38 | 1013.3 |
| 20260504193513 | 16 | 191 | 20.9 | 33.8 | 0.00 | 0.10 | 0.10 | 38 | 1013.1 |
| 20260504193032 | 16 | 209 | 20.9 | 35.4 | 0.00 | 0.10 | 0.10 | 40 | 1013.2 |
| 20260504192513 | 16 | 232 | 19.3 | 38.6 | 0.00 | 0.10 | 0.10 | 37 | 1013.2 |
| 20260504192016 | 16 | 191 | 25.7 | 38.6 | 0.00 | 0.10 | 0.10 | 36 | 1013.1 |
| 20260504191538 | 16 | 235 | 17.7 | 37.0 | 0.00 | 0.10 | 0.10 | 41 | 1012.9 |
| 20260504191013 | 16 | 251 | 22.5 | 37.0 | 0.00 | 0.10 | 0.10 | 42 | 1013.2 |
| 20260504190514 | 16 | 214 | 20.9 | 33.8 | 0.00 | 0.10 | 0.10 | 40 | 1013.1 |
| 20260504190030 | 16 | 222 | 22.5 | 33.8 | 0.00 | 0.10 | 0.10 | 45 | 1013.2 |
| 20260504185512 | 16 | 241 | 17.7 | 33.8 | 0.00 | 0.10 | 0.10 | 41 | 1013.1 |
| 20260504185014 | 16 | 232 | 20.9 | 33.8 | 0.00 | 0.10 | 0.10 | 42 | 1013.2 |
| 20260504184531 | 15 | 235 | 17.7 | 30.6 | 0.00 | 0.10 | 0.10 | 44 | 1013.2 |
| 20260504184013 | 15 | 211 | 17.7 | 40.2 | 0.00 | 0.10 | 0.10 | 43 | 1013.2 |
| 20260504183516 | 16 | 218 | 22.5 | 40.2 | 0.00 | 0.10 | 0.10 | 41 | 1013.3 |
| 20260504183031 | 16 | 238 | 14.5 | 27.4 | 0.00 | 0.10 | 0.10 | 45 | 1013.3 |
| 20260504182516 | 16 | 233 | 14.5 | 27.4 | 0.00 | 0.10 | 0.10 | 46 | 1013.4 |
| 20260504182017 | 16 | 235 | 12.9 | 27.4 | 0.00 | 0.10 | 0.10 | 48 | 1013.4 |
| 20260504181537 | 15 | 234 | 6.4 | 24.1 | 0.00 | 0.10 | 0.10 | 53 | 1013.6 |
| 20260504181013 | 15 | 153 | 11.3 | 20.9 | 0.00 | 0.10 | 0.10 | 51 | 1013.6 |
| 20260504180514 | 15 | 290 | 12.9 | 20.9 | 0.00 | 0.10 | 0.10 | 55 | 1013.7 |
| 20260504180035 | 15 | 258 | 9.7 | 20.9 | 0.00 | 0.10 | 0.10 | 58 | 1013.9 |
| 20260504175539 | 14 | 282 | 11.3 | 19.3 | 0.00 | 0.10 | 0.10 | 58 | 1013.9 |
| 20260504175013 | 13 | 259 | 9.7 | 20.9 | 0.00 | 0.10 | 0.10 | 59 | 1013.9 |
| 20260504174532 | 13 | 277 | 14.5 | 20.9 | 0.00 | 0.10 | 0.10 | 62 | 1013.9 |
| 20260504174013 | 13 | 291 | 9.7 | 20.9 | 0.00 | 0.10 | 0.10 | 64 | 1014.1 |
| 20260504173514 | 13 | 293 | 12.9 | 25.7 | 0.00 | 0.10 | 0.10 | 65 | 1014.1 |
| 20260504173034 | 13 | 289 | 12.9 | 29.0 | 0.00 | 0.10 | 0.10 | 64 | 1014.2 |
| 20260504172512 | 13 | 285 | 17.7 | 29.0 | 0.00 | 0.10 | 0.10 | 62 | 1014.3 |
| 20260504172016 | 13 | 285 | 17.7 | 25.7 | 0.00 | 0.10 | 0.10 | 64 | 1014.2 |
| 20260504171535 | 13 | 300 | 12.9 | 25.7 | 0.00 | 0.10 | 0.10 | 65 | 1014.3 |
| 20260504171015 | 12 | 285 | 17.7 | 25.7 | 0.00 | 0.10 | 0.10 | 62 | 1014.1 |
| 20260504170514 | 12 | 288 | 19.3 | 25.7 | 0.00 | 0.10 | 0.10 | 64 | 1014.2 |
| 20260504151014 | 11 | 326 | 0.0 | 4.8 | 0.00 | 0.10 | 0.10 | 66 | 1015.1 |
| 20260504150515 | 11 | 283 | 3.2 | 6.4 | 0.00 | 0.10 | 0.10 | 64 | 1015.2 |
| 20260504141018 | 7 | 107 | 4.8 | 6.4 | 0.00 | 0.10 | 0.10 | 86 | 1015.5 |
| 20260504140513 | 7 | 114 | 4.8 | 6.4 | 0.00 | 0.10 | 0.10 | 86 | 1015.3 |
| 20260504130512 | 5 | 84 | 8.0 | 12.9 | 0.00 | 0.10 | 0.10 | 87 | 1015.1 |
| 20260504110516 | 6 | 97 | 14.5 | 17.7 | 0.00 | 0.10 | 0.10 | 90 | 1015.4 |
| 20260504100511 | 6 | 63 | 4.8 | 16.1 | 0.08 | 0.10 | 0.10 | 90 | 1015.9 |
| 20260504081534 | 7 | 113 | 0.0 | 4.8 | 0.00 | 0.00 | 0.00 | 77 | 1016.1 |
| 20260504081020 | 7 | 107 | 1.6 | 14.5 | 0.00 | 0.00 | 0.00 | 78 | 1016.1 |
| 20260504080513 | 7 | 121 | 1.6 | 14.5 | 0.00 | 0.00 | 0.00 | 79 | 1016.1 |
| 20260504050517 | 12 | 197 | 19.3 | 33.8 | 0.00 | 0.00 | 0.00 | 47 | 1017.0 |
| 20260504045510 | 13 | 194 | 19.3 | 29.0 | 0.00 | 0.00 | 0.00 | 45 | 1016.8 |
| 20260504045016 | 13 | 184 | 17.7 | 25.7 | 0.00 | 0.00 | 0.00 | 43 | 1016.7 |
| 20260504044529 | 13 | 224 | 17.7 | 25.7 | 0.00 | 0.00 | 0.00 | 42 | 1016.7 |
| 20260504044011 | 13 | 189 | 14.5 | 29.0 | 0.00 | 0.00 | 0.00 | 41 | 1016.7 |
| 20260504043510 | 13 | 174 | 16.1 | 29.0 | 0.00 | 0.00 | 0.00 | 41 | 1016.5 |
| 20260504043035 | 13 | 216 | 17.7 | 40.2 | 0.00 | 0.00 | 0.00 | 40 | 1016.6 |
| 20260504042512 | 13 | 210 | 29.0 | 40.2 | 0.00 | 0.00 | 0.00 | 39 | 1016.4 |
| 20260504042013 | 13 | 245 | 22.5 | 33.8 | 0.00 | 0.00 | 0.00 | 38 | 1016.1 |
| 20260504041531 | 13 | 218 | 19.3 | 30.6 | 0.00 | 0.00 | 0.00 | 38 | 1015.8 |
| 20260504041012 | 11 | 207 | 14.5 | 20.9 | 0.00 | 0.00 | 0.00 | 41 | 1015.6 |
| 20260504040511 | 10 | 0 | 0.0 | 9.7 | 0.00 | 0.00 | 0.00 | 42 | 1015.6 |